iso_date,epoch_date,Year,Hour,Min,DOY,POS_DOY,Lat,Lon,BP,Ts,Ta,has_bp,has_ts,has_ta,BuoyID,Buoy_Type,Buoy_Owner,Logistics,Hemisphere
2018-02-18T12:00:00Z,1518955200,2018,12,0,49.5,49.5,-76.8596,-35.5562,992.1,0.2,-8.0,yes,yes,yes,300234065268080,Snow_Buoy,AWI-USIABP,unknown,South
2018-02-18T13:00:28Z,1518958829,2018,13,0,49.542,49.542,-76.8548,-35.5572,991.6,-0.2,-7.7,yes,yes,yes,300234065268080,Snow_Buoy,AWI-USIABP,unknown,South
2018-02-18T14:00:57Z,1518962458,2018,14,1,49.584,49.584,-76.8482,-35.5532,990.8,-0.4,-7.1,yes,yes,yes,300234065268080,Snow_Buoy,AWI-USIABP,unknown,South
2018-02-18T15:00:00Z,1518966000,2018,15,0,49.625,49.625,-76.8402,-35.5458,990.4,-0.5,-6.8,yes,yes,yes,300234065268080,Snow_Buoy,AWI-USIABP,unknown,South
2018-02-18T16:00:28Z,1518969629,2018,16,0,49.667,49.667,-76.8316,-35.5368,989.9,-0.6,-6.7,yes,yes,yes,300234065268080,Snow_Buoy,AWI-USIABP,unknown,South
2018-02-18T16:59:31Z,1518973171,2018,17,0,49.708,49.708,-76.8232,-35.526,989.5,-0.7,-7.0,yes,yes,yes,300234065268080,Snow_Buoy,AWI-USIABP,unknown,South
2018-02-18T18:01:26Z,1518976886,2018,18,1,49.751,49.751,-76.8164,-35.5126,989.1,-0.8,-7.2,yes,yes,yes,300234065268080,Snow_Buoy,AWI-USIABP,unknown,South
2018-02-18T19:00:28Z,1518980429,2018,19,0,49.792,49.792,-76.8116,-35.4994,988.7,-0.8,-7.1,yes,yes,yes,300234065268080,Snow_Buoy,AWI-USIABP,unknown,South
2018-02-18T19:59:31Z,1518983971,2018,20,0,49.833,49.833,-76.8084,-35.4888,988.1,-0.8,-7.1,yes,yes,yes,300234065268080,Snow_Buoy,AWI-USIABP,unknown,South
2018-02-18T21:01:26Z,1518987686,2018,21,1,49.876,49.876,-76.807,-35.481,987.4,-0.9,-7.0,yes,yes,yes,300234065268080,Snow_Buoy,AWI-USIABP,unknown,South
2018-02-18T22:00:28Z,1518991229,2018,22,0,49.917,49.917,-76.8064,-35.475,986.9,-0.9,-7.1,yes,yes,yes,300234065268080,Snow_Buoy,AWI-USIABP,unknown,South
2018-02-18T22:59:31Z,1518994771,2018,23,0,49.958,49.958,-76.8062,-35.4748,986.5,-0.9,-7.1,yes,yes,yes,300234065268080,Snow_Buoy,AWI-USIABP,unknown,South
2018-02-19T00:01:26Z,1518998486,2018,0,1,50.001,50.001,-76.805,-35.4748,986.4,-0.9,-7.7,yes,yes,yes,300234065268080,Snow_Buoy,AWI-USIABP,unknown,South
2018-02-19T01:00:28Z,1519002029,2018,1,0,50.042,50.042,-76.8018,-35.4748,986.3,-0.9,-8.8,yes,yes,yes,300234065268080,Snow_Buoy,AWI-USIABP,unknown,South
2018-02-19T01:59:31Z,1519005571,2018,2,0,50.083,50.083,-76.7972,-35.476,986.2,-1.0,-9.7,yes,yes,yes,300234065268080,Snow_Buoy,AWI-USIABP,unknown,South
2018-02-19T03:00:00Z,1519009200,2018,3,0,50.125,50.125,-76.7926,-35.469,985.8,-1.0,-10.7,yes,yes,yes,300234065268080,Snow_Buoy,AWI-USIABP,unknown,South
2018-02-19T04:00:28Z,1519012829,2018,4,0,50.167,50.167,-76.788,-35.4522,985.6,-1.1,-12.9,yes,yes,yes,300234065268080,Snow_Buoy,AWI-USIABP,unknown,South
2018-02-19T04:59:31Z,1519016371,2018,5,0,50.208,50.208,-76.7828,-35.4262,985.6,-1.1,-13.7,yes,yes,yes,300234065268080,Snow_Buoy,AWI-USIABP,unknown,South
2018-02-19T06:01:26Z,1519020086,2018,6,1,50.251,50.251,-76.7778,-35.3968,985.5,-1.2,-13.3,yes,yes,yes,300234065268080,Snow_Buoy,AWI-USIABP,unknown,South
2018-02-19T07:00:28Z,1519023629,2018,7,0,50.292,50.292,-76.7738,-35.3732,985.0,-1.2,-12.5,yes,yes,yes,300234065268080,Snow_Buoy,AWI-USIABP,unknown,South
2018-02-19T07:59:31Z,1519027171,2018,8,0,50.333,50.333,-76.7712,-35.3522,984.5,-1.2,-12.3,yes,yes,yes,300234065268080,Snow_Buoy,AWI-USIABP,unknown,South
2018-02-19T09:01:26Z,1519030886,2018,9,1,50.376,50.376,-76.7698,-35.3382,984.4,-1.2,-12.4,yes,yes,yes,300234065268080,Snow_Buoy,AWI-USIABP,unknown,South
2018-02-19T10:00:28Z,1519034429,2018,10,0,50.417,50.417,-76.7688,-35.3326,984.2,-1.3,-12.3,yes,yes,yes,300234065268080,Snow_Buoy,AWI-USIABP,unknown,South
2018-02-19T10:59:31Z,1519037971,2018,11,0,50.458,50.458,-76.7688,-35.3324,984.0,-1.3,-12.4,yes,yes,yes,300234065268080,Snow_Buoy,AWI-USIABP,unknown,South
2018-02-19T12:01:26Z,1519041686,2018,12,1,50.501,50.501,-76.7686,-35.3324,983.9,-1.3,-12.6,yes,yes,yes,300234065268080,Snow_Buoy,AWI-USIABP,unknown,South
2018-02-19T13:00:28Z,1519045229,2018,13,0,50.542,50.542,-76.7674,-35.3304,984.0,-1.3,-12.1,yes,yes,yes,300234065268080,Snow_Buoy,AWI-USIABP,unknown,South
2018-02-19T13:59:31Z,1519048771,2018,14,0,50.583,50.583,-76.7644,-35.3256,983.9,-1.3,-11.5,yes,yes,yes,300234065268080,Snow_Buoy,AWI-USIABP,unknown,South
2018-02-19T15:00:00Z,1519052400,2018,15,0,50.625,50.625,-76.7602,-35.3142,983.8,-1.3,-11.5,yes,yes,yes,300234065268080,Snow_Buoy,AWI-USIABP,unknown,South
2018-02-19T16:00:28Z,1519056029,2018,16,0,50.667,50.667,-76.7554,-35.298,983.7,-1.3,-11.5,yes,yes,yes,300234065268080,Snow_Buoy,AWI-USIABP,unknown,South
2018-02-19T16:59:31Z,1519059571,2018,17,0,50.708,50.708,-76.7498,-35.2772,983.4,-1.3,-11.4,yes,yes,yes,300234065268080,Snow_Buoy,AWI-USIABP,unknown,South
2018-02-19T18:00:00Z,1519063200,2018,18,0,50.75,50.75,-76.7444,-35.2568,983.3,-1.4,-11.2,yes,yes,yes,300234065268080,Snow_Buoy,AWI-USIABP,unknown,South
2018-02-19T19:00:28Z,1519066829,2018,19,0,50.792,50.792,-76.7396,-35.236,983.1,-1.4,-11.4,yes,yes,yes,300234065268080,Snow_Buoy,AWI-USIABP,unknown,South
2018-02-19T20:00:57Z,1519070458,2018,20,1,50.834,50.834,-76.736,-35.2178,982.8,-1.4,-11.6,yes,yes,yes,300234065268080,Snow_Buoy,AWI-USIABP,unknown,South
2018-02-19T21:00:00Z,1519074000,2018,21,0,50.875,50.875,-76.734,-35.2078,982.4,-1.4,-11.9,yes,yes,yes,300234065268080,Snow_Buoy,AWI-USIABP,unknown,South
2018-02-19T22:00:28Z,1519077629,2018,22,0,50.917,50.917,-76.7332,-35.2018,982.1,-1.4,-12.5,yes,yes,yes,300234065268080,Snow_Buoy,AWI-USIABP,unknown,South
2018-02-19T22:59:31Z,1519081171,2018,23,0,50.958,50.958,-76.7332,-35.2002,981.8,-1.4,-13.8,yes,yes,yes,300234065268080,Snow_Buoy,AWI-USIABP,unknown,South
2018-02-20T00:01:26Z,1519084886,2018,0,1,51.001,51.001,-76.7332,-35.2,981.5,-1.5,-14.5,yes,yes,yes,300234065268080,Snow_Buoy,AWI-USIABP,unknown,South
2018-02-20T01:00:28Z,1519088429,2018,1,0,51.042,51.042,-76.7328,-35.1978,981.2,-1.6,-14.8,yes,yes,yes,300234065268080,Snow_Buoy,AWI-USIABP,unknown,South
2018-02-20T01:59:31Z,1519091971,2018,2,0,51.083,51.083,-76.7318,-35.191,980.9,-1.6,-15.2,yes,yes,yes,300234065268080,Snow_Buoy,AWI-USIABP,unknown,South
2018-02-20T03:00:00Z,1519095600,2018,3,0,51.125,51.125,-76.7294,-35.181,980.4,-1.7,-15.3,yes,yes,yes,300234065268080,Snow_Buoy,AWI-USIABP,unknown,South
2018-02-20T04:00:28Z,1519099229,2018,4,0,51.167,51.167,-76.7256,-35.1666,980.0,-1.7,-15.6,yes,yes,yes,300234065268080,Snow_Buoy,AWI-USIABP,unknown,South
2018-02-20T04:59:31Z,1519102771,2018,5,0,51.208,51.208,-76.7212,-35.1486,979.6,-1.7,-15.8,yes,yes,yes,300234065268080,Snow_Buoy,AWI-USIABP,unknown,South
2018-02-20T06:00:00Z,1519106400,2018,6,0,51.25,51.25,-76.7166,-35.1286,979.0,-1.8,-16.4,yes,yes,yes,300234065268080,Snow_Buoy,AWI-USIABP,unknown,South
2018-02-20T07:00:28Z,1519110029,2018,7,0,51.292,51.292,-76.7118,-35.1082,978.7,-1.8,-16.6,yes,yes,yes,300234065268080,Snow_Buoy,AWI-USIABP,unknown,South
2018-02-20T08:00:57Z,1519113658,2018,8,1,51.334,51.334,-76.7076,-35.0912,978.3,-1.8,-15.6,yes,yes,yes,300234065268080,Snow_Buoy,AWI-USIABP,unknown,South
2018-02-20T09:00:00Z,1519117200,2018,9,0,51.375,51.375,-76.7042,-35.0828,977.8,-1.8,-14.1,yes,yes,yes,300234065268080,Snow_Buoy,AWI-USIABP,unknown,South
2018-02-20T10:00:28Z,1519120829,2018,10,0,51.417,51.417,-76.7016,-35.0772,977.3,-1.8,-13.5,yes,yes,yes,300234065268080,Snow_Buoy,AWI-USIABP,unknown,South
2018-02-20T10:59:31Z,1519124371,2018,11,0,51.458,51.458,-76.6996,-35.073,977.0,-1.8,-13.2,yes,yes,yes,300234065268080,Snow_Buoy,AWI-USIABP,unknown,South
2018-02-20T12:01:26Z,1519128086,2018,12,1,51.501,51.501,-76.6982,-35.067,976.8,-1.8,-13.6,yes,yes,yes,300234065268080,Snow_Buoy,AWI-USIABP,unknown,South
2018-02-20T13:00:28Z,1519131629,2018,13,0,51.542,51.542,-76.6966,-35.0586,976.7,-1.8,-13.6,yes,yes,yes,300234065268080,Snow_Buoy,AWI-USIABP,unknown,South
2018-02-20T13:59:31Z,1519135171,2018,14,0,51.583,51.583,-76.694,-35.0488,976.5,-1.8,-13.3,yes,yes,yes,300234065268080,Snow_Buoy,AWI-USIABP,unknown,South
2018-02-20T15:01:26Z,1519138886,2018,15,1,51.626,51.626,-76.6906,-35.0352,976.6,-1.7,-13.4,yes,yes,yes,300234065268080,Snow_Buoy,AWI-USIABP,unknown,South
2018-02-20T16:00:28Z,1519142429,2018,16,0,51.667,51.667,-76.6862,-35.0168,976.9,-1.7,-13.7,yes,yes,yes,300234065268080,Snow_Buoy,AWI-USIABP,unknown,South
2018-02-20T16:59:31Z,1519145971,2018,17,0,51.708,51.708,-76.6812,-34.9948,976.9,-1.7,-13.6,yes,yes,yes,300234065268080,Snow_Buoy,AWI-USIABP,unknown,South
2018-02-20T18:01:26Z,1519149686,2018,18,1,51.751,51.751,-76.676,-34.9708,976.9,-1.7,-13.7,yes,yes,yes,300234065268080,Snow_Buoy,AWI-USIABP,unknown,South
2018-02-20T19:00:28Z,1519153229,2018,19,0,51.792,51.792,-76.6716,-34.9498,977.2,-1.7,-13.9,yes,yes,yes,300234065268080,Snow_Buoy,AWI-USIABP,unknown,South
2018-02-20T19:59:31Z,1519156771,2018,20,0,51.833,51.833,-76.6678,-34.933,977.2,-1.7,-14.1,yes,yes,yes,300234065268080,Snow_Buoy,AWI-USIABP,unknown,South
2018-02-20T21:01:26Z,1519160486,2018,21,1,51.876,51.876,-76.6656,-34.9238,977.5,-1.8,-14.2,yes,yes,yes,300234065268080,Snow_Buoy,AWI-USIABP,unknown,South
2018-02-20T22:00:28Z,1519164029,2018,22,0,51.917,51.917,-76.665,-34.9232,977.6,-1.8,-14.8,yes,yes,yes,300234065268080,Snow_Buoy,AWI-USIABP,unknown,South
2018-02-20T22:59:31Z,1519167571,2018,23,0,51.958,51.958,-76.6658,-34.9276,977.8,-1.8,-15.0,yes,yes,yes,300234065268080,Snow_Buoy,AWI-USIABP,unknown,South
2018-02-21T00:01:26Z,1519171286,2018,0,1,52.001,52.001,-76.6676,-34.9348,978.2,-1.9,-15.7,yes,yes,yes,300234065268080,Snow_Buoy,AWI-USIABP,unknown,South
2018-02-21T01:00:28Z,1519174829,2018,1,0,52.042,52.042,-76.6694,-34.9422,978.4,-1.9,-15.5,yes,yes,yes,300234065268080,Snow_Buoy,AWI-USIABP,unknown,South
2018-02-21T01:59:31Z,1519178371,2018,2,0,52.083,52.083,-76.671,-34.9468,978.7,-1.9,-15.2,yes,yes,yes,300234065268080,Snow_Buoy,AWI-USIABP,unknown,South
2018-02-21T03:00:00Z,1519182000,2018,3,0,52.125,52.125,-76.672,-34.946,978.6,-1.9,-15.2,yes,yes,yes,300234065268080,Snow_Buoy,AWI-USIABP,unknown,South
2018-02-21T04:00:28Z,1519185629,2018,4,1,52.167,52.167,-76.672,-34.9366,978.6,-1.9,-15.3,yes,yes,yes,300234065268080,Snow_Buoy,AWI-USIABP,unknown,South
2018-02-21T04:59:31Z,1519189171,2018,5,0,52.208,52.208,-76.6706,-34.9218,978.8,-1.9,-15.2,yes,yes,yes,300234065268080,Snow_Buoy,AWI-USIABP,unknown,South
2018-02-21T06:00:00Z,1519192800,2018,6,0,52.25,52.25,-76.668,-34.9056,979.0,-1.9,-15.0,yes,yes,yes,300234065268080,Snow_Buoy,AWI-USIABP,unknown,South
2018-02-21T07:00:28Z,1519196429,2018,7,0,52.292,52.292,-76.6648,-34.8898,979.0,-1.9,-15.0,yes,yes,yes,300234065268080,Snow_Buoy,AWI-USIABP,unknown,South
2018-02-21T07:59:31Z,1519199971,2018,8,0,52.333,52.333,-76.6616,-34.8746,979.4,-1.9,-15.2,yes,yes,yes,300234065268080,Snow_Buoy,AWI-USIABP,unknown,South
2018-02-21T09:00:00Z,1519203600,2018,9,0,52.375,52.375,-76.6592,-34.8644,979.6,-1.9,-14.8,yes,yes,yes,300234065268080,Snow_Buoy,AWI-USIABP,unknown,South
2018-02-21T10:00:28Z,1519207229,2018,10,0,52.417,52.417,-76.6578,-34.8566,979.5,-1.9,-15.0,yes,yes,yes,300234065268080,Snow_Buoy,AWI-USIABP,unknown,South
2018-02-21T10:59:31Z,1519210771,2018,11,0,52.458,52.458,-76.6572,-34.851,979.7,-1.9,-14.8,yes,yes,yes,300234065268080,Snow_Buoy,AWI-USIABP,unknown,South
2018-02-21T12:00:00Z,1519214400,2018,12,0,52.5,52.5,-76.6566,-34.8456,979.7,-1.9,-15.1,yes,yes,yes,300234065268080,Snow_Buoy,AWI-USIABP,unknown,South
2018-02-21T13:00:28Z,1519218029,2018,13,0,52.542,52.542,-76.6558,-34.8388,979.9,-2.0,-14.7,yes,yes,yes,300234065268080,Snow_Buoy,AWI-USIABP,unknown,South
2018-02-21T14:00:57Z,1519221658,2018,14,1,52.584,52.584,-76.6538,-34.8328,979.9,-2.0,-14.4,yes,yes,yes,300234065268080,Snow_Buoy,AWI-USIABP,unknown,South
2018-02-21T15:00:00Z,1519225200,2018,15,0,52.625,52.625,-76.6512,-34.8262,980.0,-2.0,-14.2,yes,yes,yes,300234065268080,Snow_Buoy,AWI-USIABP,unknown,South
2018-02-21T16:00:28Z,1519228829,2018,16,0,52.667,52.667,-76.648,-34.8158,980.4,-2.0,-13.9,yes,yes,yes,300234065268080,Snow_Buoy,AWI-USIABP,unknown,South
2018-02-21T17:00:57Z,1519232458,2018,17,1,52.709,52.709,-76.6444,-34.8002,980.7,-2.0,-14.0,yes,yes,yes,300234065268080,Snow_Buoy,AWI-USIABP,unknown,South
2018-02-21T18:00:00Z,1519236000,2018,18,0,52.75,52.75,-76.641,-34.7792,980.9,-2.0,-14.0,yes,yes,yes,300234065268080,Snow_Buoy,AWI-USIABP,unknown,South
2018-02-21T19:00:28Z,1519239629,2018,19,0,52.792,52.792,-76.6374,-34.7538,981.4,-2.1,-14.2,yes,yes,yes,300234065268080,Snow_Buoy,AWI-USIABP,unknown,South
2018-02-21T20:00:57Z,1519243258,2018,20,1,52.834,52.834,-76.6336,-34.7286,981.9,-2.1,-14.3,yes,yes,yes,300234065268080,Snow_Buoy,AWI-USIABP,unknown,South
2018-02-21T21:00:00Z,1519246800,2018,21,0,52.875,52.875,-76.6294,-34.7088,982.1,-2.1,-14.5,yes,yes,yes,300234065268080,Snow_Buoy,AWI-USIABP,unknown,South
2018-02-21T22:00:28Z,1519250429,2018,22,0,52.917,52.917,-76.626,-34.695,982.6,-2.2,-15.0,yes,yes,yes,300234065268080,Snow_Buoy,AWI-USIABP,unknown,South
2018-02-21T22:59:31Z,1519253971,2018,23,0,52.958,52.958,-76.6236,-34.6848,982.7,-2.2,-15.4,yes,yes,yes,300234065268080,Snow_Buoy,AWI-USIABP,unknown,South
2018-02-23T00:01:26Z,1519344086,2018,0,1,54.001,54.001,-76.4862,-34.3586,987.9,-2.8,-13.8,yes,yes,yes,300234065268080,Snow_Buoy,AWI-USIABP,unknown,South
2018-02-23T01:00:28Z,1519347629,2018,1,0,54.042,54.042,-76.4808,-34.3606,987.9,-2.8,-13.8,yes,yes,yes,300234065268080,Snow_Buoy,AWI-USIABP,unknown,South
2018-02-23T01:59:31Z,1519351171,2018,2,0,54.083,54.083,-76.4766,-34.367,988.1,-2.9,-14.3,yes,yes,yes,300234065268080,Snow_Buoy,AWI-USIABP,unknown,South
2018-02-23T03:00:00Z,1519354800,2018,3,0,54.125,54.125,-76.4734,-34.3692,988.4,-2.9,-14.9,yes,yes,yes,300234065268080,Snow_Buoy,AWI-USIABP,unknown,South
2018-02-23T04:00:28Z,1519358429,2018,4,0,54.167,54.167,-76.471,-34.37,988.7,-2.9,-15.2,yes,yes,yes,300234065268080,Snow_Buoy,AWI-USIABP,unknown,South
2018-02-23T04:59:31Z,1519361971,2018,5,0,54.208,54.208,-76.4686,-34.3664,989.1,-3.0,-15.3,yes,yes,yes,300234065268080,Snow_Buoy,AWI-USIABP,unknown,South
2018-02-23T06:01:26Z,1519365686,2018,6,1,54.251,54.251,-76.466,-34.3584,989.2,-3.0,-15.2,yes,yes,yes,300234065268080,Snow_Buoy,AWI-USIABP,unknown,South
2018-02-23T07:00:28Z,1519369229,2018,7,0,54.292,54.292,-76.463,-34.3492,989.4,-3.1,-15.3,yes,yes,yes,300234065268080,Snow_Buoy,AWI-USIABP,unknown,South
2018-02-23T07:59:31Z,1519372771,2018,8,0,54.333,54.333,-76.4596,-34.3382,989.5,-3.1,-15.2,yes,yes,yes,300234065268080,Snow_Buoy,AWI-USIABP,unknown,South
2018-02-23T09:01:26Z,1519376486,2018,9,1,54.376,54.376,-76.4562,-34.329,989.4,-3.1,-15.1,yes,yes,yes,300234065268080,Snow_Buoy,AWI-USIABP,unknown,South
2018-02-23T10:00:28Z,1519380029,2018,10,0,54.417,54.417,-76.4538,-34.324,989.4,-3.1,-14.9,yes,yes,yes,300234065268080,Snow_Buoy,AWI-USIABP,unknown,South
2018-02-23T10:59:31Z,1519383571,2018,11,0,54.458,54.458,-76.4522,-34.3228,989.4,-3.1,-14.2,yes,yes,yes,300234065268080,Snow_Buoy,AWI-USIABP,unknown,South
2018-02-23T12:01:26Z,1519387286,2018,12,1,54.501,54.501,-76.452,-34.3236,989.4,-3.1,-14.0,yes,yes,yes,300234065268080,Snow_Buoy,AWI-USIABP,unknown,South
2018-02-23T13:00:28Z,1519390829,2018,13,0,54.542,54.542,-76.4528,-34.3248,989.4,-3.1,-13.7,yes,yes,yes,300234065268080,Snow_Buoy,AWI-USIABP,unknown,South
2018-02-23T13:59:31Z,1519394371,2018,14,0,54.583,54.583,-76.4542,-34.3264,989.1,-3.1,-12.9,yes,yes,yes,300234065268080,Snow_Buoy,AWI-USIABP,unknown,South
2018-02-23T15:01:26Z,1519398086,2018,15,1,54.626,54.626,-76.4562,-34.3282,989.2,-3.0,-12.8,yes,yes,yes,300234065268080,Snow_Buoy,AWI-USIABP,unknown,South
2018-02-23T16:00:28Z,1519401629,2018,16,0,54.667,54.667,-76.4584,-34.3284,989.2,-3.0,-13.1,yes,yes,yes,300234065268080,Snow_Buoy,AWI-USIABP,unknown,South
2018-02-23T16:59:31Z,1519405171,2018,17,0,54.708,54.708,-76.4604,-34.3246,989.0,-3.0,-12.8,yes,yes,yes,300234065268080,Snow_Buoy,AWI-USIABP,unknown,South
2018-02-23T18:01:26Z,1519408886,2018,18,1,54.751,54.751,-76.4618,-34.3196,989.0,-3.0,-12.9,yes,yes,yes,300234065268080,Snow_Buoy,AWI-USIABP,unknown,South
2018-02-23T19:00:28Z,1519412429,2018,19,0,54.792,54.792,-76.4626,-34.3136,989.1,-3.0,-13.5,yes,yes,yes,300234065268080,Snow_Buoy,AWI-USIABP,unknown,South
2018-02-23T19:59:31Z,1519415971,2018,20,0,54.833,54.833,-76.4624,-34.3068,989.0,-3.0,-13.6,yes,yes,yes,300234065268080,Snow_Buoy,AWI-USIABP,unknown,South
2018-02-23T21:00:00Z,1519419600,2018,21,0,54.875,54.875,-76.4616,-34.301,988.9,-3.0,-13.6,yes,yes,yes,300234065268080,Snow_Buoy,AWI-USIABP,unknown,South
2018-02-23T22:00:28Z,1519423229,2018,22,0,54.917,54.917,-76.4606,-34.2974,988.8,-3.0,-13.8,yes,yes,yes,300234065268080,Snow_Buoy,AWI-USIABP,unknown,South
2018-02-23T22:59:31Z,1519426771,2018,23,0,54.958,54.958,-76.4596,-34.2964,988.8,-3.0,-13.8,yes,yes,yes,300234065268080,Snow_Buoy,AWI-USIABP,unknown,South
2018-02-24T00:01:26Z,1519430486,2018,0,1,55.001,55.001,-76.4588,-34.2972,988.5,-3.1,-14.5,yes,yes,yes,300234065268080,Snow_Buoy,AWI-USIABP,unknown,South
2018-02-24T01:00:28Z,1519434029,2018,1,0,55.042,55.042,-76.458,-34.2998,988.5,-3.1,-14.5,yes,yes,yes,300234065268080,Snow_Buoy,AWI-USIABP,unknown,South
2018-02-24T01:59:31Z,1519437571,2018,2,0,55.083,55.083,-76.4576,-34.3048,988.3,-3.1,-14.5,yes,yes,yes,300234065268080,Snow_Buoy,AWI-USIABP,unknown,South
2018-02-24T03:00:00Z,1519441200,2018,3,0,55.125,55.125,-76.4576,-34.3106,988.1,-3.2,-14.9,yes,yes,yes,300234065268080,Snow_Buoy,AWI-USIABP,unknown,South
2018-02-24T04:00:28Z,1519444829,2018,4,0,55.167,55.167,-76.4578,-34.3156,988.0,-3.2,-15.3,yes,yes,yes,300234065268080,Snow_Buoy,AWI-USIABP,unknown,South
2018-02-24T04:59:31Z,1519448371,2018,5,0,55.208,55.208,-76.4582,-34.3184,987.9,-3.3,-15.4,yes,yes,yes,300234065268080,Snow_Buoy,AWI-USIABP,unknown,South
2018-02-24T06:00:00Z,1519452000,2018,6,0,55.25,55.25,-76.458,-34.318,987.9,-3.3,-16.2,yes,yes,yes,300234065268080,Snow_Buoy,AWI-USIABP,unknown,South
2018-02-24T07:00:28Z,1519455629,2018,7,0,55.292,55.292,-76.457,-34.3152,987.8,-3.4,-16.0,yes,yes,yes,300234065268080,Snow_Buoy,AWI-USIABP,unknown,South
2018-02-24T08:00:57Z,1519459258,2018,8,1,55.334,55.334,-76.4552,-34.3108,987.7,-3.4,-16.6,yes,yes,yes,300234065268080,Snow_Buoy,AWI-USIABP,unknown,South
2018-02-24T09:00:00Z,1519462800,2018,9,0,55.375,55.375,-76.4528,-34.3056,987.6,-3.4,-16.0,yes,yes,yes,300234065268080,Snow_Buoy,AWI-USIABP,unknown,South
2018-02-24T10:00:28Z,1519466429,2018,10,0,55.417,55.417,-76.45,-34.3022,987.5,-3.5,-15.6,yes,yes,yes,300234065268080,Snow_Buoy,AWI-USIABP,unknown,South
2018-02-24T10:59:31Z,1519469971,2018,11,0,55.458,55.458,-76.4476,-34.302,987.5,-3.5,-14.1,yes,yes,yes,300234065268080,Snow_Buoy,AWI-USIABP,unknown,South
2018-02-24T12:01:26Z,1519473686,2018,12,1,55.501,55.501,-76.4458,-34.3048,987.5,-3.4,-12.3,yes,yes,yes,300234065268080,Snow_Buoy,AWI-USIABP,unknown,South
2018-02-24T13:00:28Z,1519477229,2018,13,0,55.542,55.542,-76.4444,-34.3102,987.3,-3.4,-13.7,yes,yes,yes,300234065268080,Snow_Buoy,AWI-USIABP,unknown,South
2018-02-24T13:59:31Z,1519480771,2018,14,0,55.583,55.583,-76.444,-34.3174,987.2,-3.4,-13.8,yes,yes,yes,300234065268080,Snow_Buoy,AWI-USIABP,unknown,South
2018-02-24T15:01:26Z,1519484486,2018,15,1,55.626,55.626,-76.4442,-34.3252,987.0,-3.4,-13.2,yes,yes,yes,300234065268080,Snow_Buoy,AWI-USIABP,unknown,South
2018-02-24T16:00:28Z,1519488029,2018,16,0,55.667,55.667,-76.4452,-34.3328,986.7,-3.4,-13.4,yes,yes,yes,300234065268080,Snow_Buoy,AWI-USIABP,unknown,South
2018-02-24T16:59:31Z,1519491571,2018,17,0,55.708,55.708,-76.4464,-34.3388,986.6,-3.3,-13.9,yes,yes,yes,300234065268080,Snow_Buoy,AWI-USIABP,unknown,South
2018-02-24T18:01:26Z,1519495286,2018,18,1,55.751,55.751,-76.448,-34.3426,986.5,-3.3,-13.1,yes,yes,yes,300234065268080,Snow_Buoy,AWI-USIABP,unknown,South
2018-02-24T19:00:28Z,1519498829,2018,19,0,55.792,55.792,-76.449,-34.344,986.4,-3.3,-10.0,yes,yes,yes,300234065268080,Snow_Buoy,AWI-USIABP,unknown,South
2018-02-24T19:59:31Z,1519502371,2018,20,0,55.833,55.833,-76.4494,-34.3434,986.3,-3.3,-13.5,yes,yes,yes,300234065268080,Snow_Buoy,AWI-USIABP,unknown,South
2018-02-24T21:00:00Z,1519506000,2018,21,0,55.875,55.875,-76.4484,-34.3412,986.3,-3.3,-13.5,yes,yes,yes,300234065268080,Snow_Buoy,AWI-USIABP,unknown,South
2018-02-24T22:00:28Z,1519509629,2018,22,0,55.917,55.917,-76.4462,-34.3392,986.2,-3.4,-13.4,yes,yes,yes,300234065268080,Snow_Buoy,AWI-USIABP,unknown,South
2018-02-24T22:59:31Z,1519513171,2018,23,0,55.958,55.958,-76.443,-34.3386,985.8,-3.4,-12.9,yes,yes,yes,300234065268080,Snow_Buoy,AWI-USIABP,unknown,South
2018-02-25T00:01:26Z,1519516886,2018,0,1,56.001,56.001,-76.4386,-34.3404,985.7,-3.4,-12.6,yes,yes,yes,300234065268080,Snow_Buoy,AWI-USIABP,unknown,South
2018-02-25T01:00:28Z,1519520429,2018,1,0,56.042,56.042,-76.4334,-34.3434,985.5,-3.4,-12.6,yes,yes,yes,300234065268080,Snow_Buoy,AWI-USIABP,unknown,South
2018-02-25T01:59:31Z,1519523971,2018,2,0,56.083,56.083,-76.4272,-34.3502,985.4,-3.5,-13.0,yes,yes,yes,300234065268080,Snow_Buoy,AWI-USIABP,unknown,South
2018-02-25T03:00:00Z,1519527600,2018,3,0,56.125,56.125,-76.4214,-34.3622,985.2,-3.5,-13.3,yes,yes,yes,300234065268080,Snow_Buoy,AWI-USIABP,unknown,South
2018-02-25T04:00:28Z,1519531229,2018,4,1,56.167,56.167,-76.4158,-34.3774,985.0,-3.5,-13.4,yes,yes,yes,300234065268080,Snow_Buoy,AWI-USIABP,unknown,South
2018-02-25T04:59:31Z,1519534771,2018,5,0,56.208,56.208,-76.4104,-34.392,984.4,-3.5,-13.3,yes,yes,yes,300234065268080,Snow_Buoy,AWI-USIABP,unknown,South
2018-02-25T06:00:00Z,1519538400,2018,6,0,56.25,56.25,-76.4042,-34.4026,983.9,-3.6,-12.6,yes,yes,yes,300234065268080,Snow_Buoy,AWI-USIABP,unknown,South
2018-02-25T07:00:28Z,1519542029,2018,7,0,56.292,56.292,-76.3964,-34.4078,983.6,-3.6,-13.1,yes,yes,yes,300234065268080,Snow_Buoy,AWI-USIABP,unknown,South
2018-02-25T08:00:57Z,1519545658,2018,8,1,56.334,56.334,-76.3872,-34.4064,983.5,-3.6,-13.7,yes,yes,yes,300234065268080,Snow_Buoy,AWI-USIABP,unknown,South
2018-02-25T09:00:00Z,1519549200,2018,9,0,56.375,56.375,-76.377,-34.399,983.5,-3.6,-13.8,yes,yes,yes,300234065268080,Snow_Buoy,AWI-USIABP,unknown,South
2018-02-25T10:00:28Z,1519552829,2018,10,0,56.417,56.417,-76.3662,-34.3874,983.4,-3.7,-14.1,yes,yes,yes,300234065268080,Snow_Buoy,AWI-USIABP,unknown,South
2018-02-25T10:59:31Z,1519556371,2018,11,0,56.458,56.458,-76.3556,-34.3722,983.3,-3.7,-14.1,yes,yes,yes,300234065268080,Snow_Buoy,AWI-USIABP,unknown,South
2018-02-25T12:00:00Z,1519560000,2018,12,0,56.5,56.5,-76.3462,-34.3546,983.3,-3.7,-14.1,yes,yes,yes,300234065268080,Snow_Buoy,AWI-USIABP,unknown,South
2018-02-25T13:00:28Z,1519563629,2018,13,0,56.542,56.542,-76.3384,-34.3348,983.4,-3.7,-14.5,yes,yes,yes,300234065268080,Snow_Buoy,AWI-USIABP,unknown,South
2018-02-25T13:59:31Z,1519567171,2018,14,0,56.583,56.583,-76.3322,-34.3132,983.4,-3.7,-15.5,yes,yes,yes,300234065268080,Snow_Buoy,AWI-USIABP,unknown,South
2018-02-25T15:00:00Z,1519570800,2018,15,0,56.625,56.625,-76.3272,-34.2962,983.4,-3.7,-16.8,yes,yes,yes,300234065268080,Snow_Buoy,AWI-USIABP,unknown,South
2018-02-25T16:00:28Z,1519574429,2018,16,1,56.667,56.667,-76.3222,-34.2858,983.3,-3.8,-15.0,yes,yes,yes,300234065268080,Snow_Buoy,AWI-USIABP,unknown,South
2018-02-25T16:59:31Z,1519577971,2018,17,0,56.708,56.708,-76.3174,-34.2798,983.3,-3.8,-14.7,yes,yes,yes,300234065268080,Snow_Buoy,AWI-USIABP,unknown,South
2018-02-25T18:00:00Z,1519581600,2018,18,0,56.75,56.75,-76.3138,-34.2746,983.7,-3.8,-15.7,yes,yes,yes,300234065268080,Snow_Buoy,AWI-USIABP,unknown,South
2018-02-25T19:00:28Z,1519585229,2018,19,0,56.792,56.792,-76.3112,-34.267,984.0,-3.8,-16.3,yes,yes,yes,300234065268080,Snow_Buoy,AWI-USIABP,unknown,South
2018-02-25T19:59:31Z,1519588771,2018,20,0,56.833,56.833,-76.3092,-34.2564,983.8,-3.8,-16.6,yes,yes,yes,300234065268080,Snow_Buoy,AWI-USIABP,unknown,South
2018-02-25T21:01:26Z,1519592486,2018,21,1,56.876,56.876,-76.3072,-34.2416,983.5,-3.9,-16.7,yes,yes,yes,300234065268080,Snow_Buoy,AWI-USIABP,unknown,South
2018-02-25T22:00:28Z,1519596029,2018,22,0,56.917,56.917,-76.3046,-34.2242,983.5,-3.9,-17.5,yes,yes,yes,300234065268080,Snow_Buoy,AWI-USIABP,unknown,South
2018-02-25T22:59:31Z,1519599571,2018,23,0,56.958,56.958,-76.3012,-34.2066,983.3,-4.0,-17.3,yes,yes,yes,300234065268080,Snow_Buoy,AWI-USIABP,unknown,South